Weather in Sagopshi

Russia / Republic of Ingushetia     43°29′16″N   44°35′22″E
temp.,
°C
wind,
m/s
gust,
m/s
humid.,
%
clouds,
%
prec.,
mm/h
press.,
hPa
HPBL,
m
12 august, fri
fri1200:00+21sse22770 0.4 100913
03:00+21sse11770 0.7 101011
06:00+22nnw11770 0.0 101121
09:00+27nnw21533 0.0 1011660
12:00+33nne32345 0.0 10102047
15:00+34ene4333100 0.1 10092737
18:00+27e2255100 0.8 101036
21:00+20sw229099 3.3 101352
13 august, sat
sat1300:00+20sw11920 0.4 101211
03:00+19wsw11900 0.4 101111
06:00+20sw22890 0.0 101270
09:00+25wnw11600 0.0 1011616
12:00+31nne43393 0.0 10081517
15:00+34ene22300 0.0 10061976
18:00+33e67240 0.0 1006782
21:00+24e48390 0.0 1007226
14 august, sun
sun1400:00+22ese22490 0.0 100720
03:00+20sw11540 0.0 100612
06:00+20sw23550 0.0 100777
09:00+27w21393 0.0 1006545
12:00+33nne33250 0.0 10041453
15:00+36n32220 0.0 10032109
18:00+34wnw34250 0.0 1003254
21:00+26e22380 0.0 100535
15 august, mon
mon1500:00+24ssw11470 0.0 100511
03:00+21wsw22580 0.0 100626
06:00+21sw22540 0.0 100764
09:00+29wnw21350 0.0 1006561
12:00+35nne33250 0.0 10041535
15:00+38ne32210 0.0 10032017
18:00+36ne11240 0.0 100326
21:00+28sse22380 0.0 100412
16 august, tue
tue1600:00+26ssw22470 0.0 100518
03:00+23sw22510 0.0 100619
06:00+23wsw23510 0.0 100884
09:00+30wnw56330 0.0 1008698
12:00+36nw44240 0.0 10071498
15:00+38nw33210 0.0 10062505
18:00+36w23250 0.0 1007425
21:00+29ssw32400 0.0 100821